Regional Weather Roundup
Issued by NWS

Home | Current Version | Previous Version | Text Only | Print | Product List | Glossary Off
Versions: 1 2 3 4 5 6 7 8 9 10 11 12 13 14 15 16 17 18 19 20 21 22 23 24 25 26 27 28 29 30 31 32 33 34 35 36 37 38 39 40 41 42 43 44 45 46 47 48 49 50

000
ASUS43 KBIS 180410
RWRND

NORTH DAKOTA REGIONAL WEATHER ROUNDUP
NATIONAL WEATHER SERVICE BISMARCK ND
1100 PM CDT FRI APR 17 2015

NOTE: "FAIR" INDICATES FEW OR NO CLOUDS BELOW 12,000 FEET WITH NO
SIGNIFICANT WEATHER AND/OR OBSTRUCTIONS TO VISIBILITY.


NDZ001>003-009>011-017-180500-
NORTHWEST NORTH DAKOTA

CITY           SKY/WX    TMP DP  RH WIND       PRES   REMARKS
WILLISTON      CLEAR     54  27  35 E10       30.06F
MINOT          CLEAR     42  24  49 N5        30.11S
MINOT AFB      CLEAR     50  26  40 NE6       30.10F
$$

NDZ018>021-031>035-040>046-180500-
SOUTHWEST NORTH DAKOTA

CITY           SKY/WX    TMP DP  RH WIND       PRES   REMARKS
BISMARCK       PTCLDY    50  31  48 NE9       30.10R
DICKINSON      PTCLDY    47  20  34 S7        30.07S
GARRISON         N/A     49  28  44 NE6       30.10R
HETTINGER ARPT MOCLDY    46  24  42 CALM      30.10S
$$

NDZ004>008-012>016-024-026-027-054-180500-
NORTHEAST NORTH DAKOTA

CITY           SKY/WX    TMP DP  RH WIND       PRES   REMARKS
GRAND FORKS    CLEAR     43  31  62 NE6       30.14R
GRND FRKS AFB  CLEAR     39  26  59 NE8       30.14R
DEVILS LAKE    CLEAR     43  25  49 E6        30.14S
$$

NDZ022-023-025-028>030-036>039-047>053-180500-
SOUTHEAST NORTH DAKOTA

CITY           SKY/WX    TMP DP  RH WIND       PRES   REMARKS
FARGO          PTCLDY    55  16  21 N9        30.09R
JAMESTOWN      CLEAR     46  25  43 NE7       30.11R
$$




USA.gov is the U.S. government's official web portal to all federal, state and local government web resources and services.